FW8640 Weather Reports


Display with metric or nautical units.
time (UTC)temp
F
wind
direction
speed
MPH
gust
MPH
rain 1hr
in
rain 24hr
in
rain mn
in
humidity
%
barometer
mb
20220701174017 89 0.0 0.0 0.00 0.00 0.00 46 1015.3
20220701173017 89 0.0 1.0 0.00 0.00 0.00 46 1015.3
20220701172017 89 0.0 4.0 0.00 0.00 0.00 45 1015.0
20220701171017 89 0.0 0.0 0.00 0.00 0.00 46 1015.0
20220701170017 89 0.0 0.0 0.00 0.00 0.00 47 1015.1
20220701165017 88 0.0 2.0 0.00 0.00 0.00 48 1015.3
20220701164016 88 0.0 0.0 0.00 0.00 0.00 49 1015.3
20220701163017 87 0.0 5.0 0.00 0.00 0.00 56 1015.4
20220701162016 87 203 2.0 7.0 0.00 0.00 0.00 56 1015.3
20220701161017 86 203 2.0 7.0 0.00 0.00 0.00 60 1015.2
20220701160016 86 203 3.0 8.0 0.00 0.00 0.00 63 1015.2
20220701155017 86 203 3.0 9.0 0.00 0.00 0.00 65 1015.5
20220701154016 87 203 1.0 7.0 0.00 0.00 0.00 64 1015.7
20220701153016 87 225 2.0 7.0 0.00 0.00 0.00 64 1015.7
20220701152016 87 203 2.0 7.0 0.00 0.00 0.00 63 1015.7
20220701151017 87 203 3.0 8.0 0.00 0.00 0.00 61 1015.5
20220701150016 86 203 3.0 9.0 0.00 0.00 0.00 60 1015.3
20220701145016 86 203 2.0 9.0 0.00 0.00 0.00 62 1015.1
20220701144017 86 203 3.0 8.0 0.00 0.00 0.00 62 1015.0
20220701143016 86 203 2.0 7.0 0.00 0.00 0.00 62 1015.0
20220701142016 86 203 1.0 7.0 0.00 0.00 0.00 62 1015.0
20220701141017 86 225 2.0 10.0 0.00 0.00 0.00 61 1015.0
20220701140016 86 0.0 3.0 0.00 0.00 0.00 61 1015.1
20220701135016 86 225 3.0 7.0 0.00 0.00 0.00 59 1015.1
20220701134017 87 0.0 4.0 0.00 0.00 0.00 58 1015.3
20220701133016 86 248 3.0 9.0 0.00 0.00 0.00 58 1015.3
20220701132016 87 248 5.0 12.0 0.00 0.00 0.00 57 1015.4
20220701131017 87 225 6.0 11.0 0.00 0.00 0.00 57 1015.3
20220701130016 87 225 5.0 10.0 0.00 0.00 0.00 57 1015.0
20220701125016 88 225 4.0 10.0 0.00 0.00 0.00 57 1014.9
20220701124017 88 225 5.0 9.0 0.00 0.00 0.00 57 1015.0
20220701123017 87 203 4.0 9.0 0.00 0.00 0.00 60 1014.9
20220701122016 87 225 6.0 11.0 0.00 0.00 0.00 58 1014.8
20220701121016 87 203 7.0 13.0 0.00 0.00 0.00 58 1015.0
20220701120016 87 203 4.0 12.0 0.00 0.00 0.00 56 1015.1
20220701115016 87 225 4.0 9.0 0.00 0.00 0.00 55 1015.3
20220701114016 87 203 4.0 8.0 0.00 0.00 0.00 56 1015.3
20220701113016 87 225 5.0 10.0 0.00 0.00 0.00 57 1015.5
20220701112016 87 203 3.0 9.0 0.00 0.00 0.00 57 1015.5
20220701111016 88 225 4.0 9.0 0.00 0.00 0.00 58 1015.6
20220701110016 87 203 3.0 7.0 0.00 0.00 0.00 58 1015.8
20220701105016 87 203 3.0 8.0 0.00 0.00 0.00 54 1015.8
20220701104016 87 203 1.0 7.0 0.00 0.00 0.00 60 1015.9
20220701103016 86 203 2.0 7.0 0.00 0.00 0.00 60 1016.0
20220701102016 87 203 3.0 8.0 0.00 0.00 0.00 57 1016.1
20220701101016 86 203 3.0 8.0 0.00 0.00 0.00 55 1016.1
20220701100016 86 225 2.0 7.0 0.00 0.00 0.00 59 1016.2
20220701095016 85 203 4.0 9.0 0.00 0.00 0.00 53 1016.1
20220701094017 85 203 4.0 8.0 0.00 0.00 0.00 55 1016.0
20220701093016 85 203 3.0 6.0 0.00 0.00 0.00 55 1016.2
20220701092015 85 203 3.0 7.0 0.00 0.00 0.00 57 1016.1
20220701091016 85 203 4.0 8.0 0.00 0.00 0.00 56 1016.1
20220701090016 85 203 3.0 7.0 0.00 0.00 0.00 53 1016.1
20220701085016 85 203 2.0 6.0 0.00 0.00 0.00 53 1016.2
20220701084015 85 203 2.0 6.0 0.00 0.00 0.00 55 1016.3
20220701083015 84 203 1.0 6.0 0.00 0.00 0.00 54 1016.3
20220701082016 84 203 3.0 6.0 0.00 0.00 0.00 55 1016.2
20220701081015 84 180 2.0 7.0 0.00 0.00 0.00 57 1016.1
20220701080016 85 180 1.0 5.0 0.00 0.00 0.00 59 1016.2
20220701075015 84 180 1.0 5.0 0.00 0.00 0.00 63 1016.3
20220701074015 83 180 3.0 5.0 0.00 0.00 0.00 66 1016.3
20220701073015 83 180 1.0 4.0 0.00 0.00 0.00 69 1016.4
20220701072015 83 0.0 5.0 0.00 0.00 0.00 69 1016.4
20220701071016 83 0.0 4.0 0.00 0.00 0.00 67 1016.4
20220701070015 82 0.0 2.0 0.00 0.00 0.00 67 1016.4
20220701065017 82 0.0 4.0 0.00 0.00 0.00 69 1016.4
20220701064015 81 180 1.0 5.0 0.00 0.00 0.00 73 1016.3
20220701063018 80 180 1.0 5.0 0.00 0.00 0.00 76 1016.2
20220701062017 80 180 2.0 6.0 0.00 0.00 0.00 77 1016.1
20220701061017 80 180 1.0 5.0 0.00 0.00 0.00 76 1016.2
20220701060018 81 180 2.0 7.0 0.00 0.00 0.00 73 1016.2
20220701055017 81 180 1.0 7.0 0.00 0.00 0.00 69 1016.0
20220701054018 81 158 3.0 7.0 0.00 0.00 0.00 69 1015.9
20220701053017 81 135 1.0 7.0 0.00 0.00 0.00 66 1015.9
20220701052017 82 135 1.0 6.0 0.00 0.00 0.00 64 1015.9
20220701051017 81 0.0 0.0 0.00 0.00 0.00 62 1015.9
20220701050017 80 0.0 0.0 0.00 0.00 0.00 62 1015.9
20220701045018 79 0.0 0.0 0.00 0.00 0.00 62 1015.7
20220701044018 79 0.0 0.0 0.00 0.00 0.00 66 1015.7
20220701043017 79 0.0 0.0 0.00 0.00 0.00 70 1015.7
20220701042017 79 0.0 0.0 0.00 0.00 0.00 70 1015.7
20220701041017 78 0.0 0.0 0.00 0.00 0.00 69 1015.7
20220701040018 78 0.0 0.0 0.00 0.00 0.00 66 1015.6
20220701035017 77 0.0 0.0 0.00 0.00 0.00 63 1015.6
20220701034017 77 0.0 0.0 0.00 0.00 0.00 62 1015.6
20220701033017 77 0.0 0.0 0.00 0.00 0.00 63 1015.4
20220701032017 76 0.0 0.0 0.00 0.00 0.00 62 1015.3
20220701031017 76 0.0 0.0 0.00 0.00 0.00 62 1015.1
20220701030017 76 0.0 0.0 0.00 0.00 0.00 65 1015.1
20220701025017 76 0.0 1.0 0.00 0.00 0.00 63 1015.1
20220701024017 76 0.0 0.0 0.00 0.00 0.00 62 1015.0
20220701023017 76 0.0 0.0 0.00 0.00 0.00 62 1015.1
20220701022017 76 0.0 0.0 0.00 0.00 0.00 63 1015.0
20220701021017 77 0.0 0.0 0.00 0.00 0.00 63 1014.9
20220701020017 77 0.0 1.0 0.00 0.00 0.00 63 1015.0
20220701015017 77 0.0 0.0 0.00 0.00 0.00 62 1014.9
20220701014017 77 0.0 0.0 0.00 0.00 0.00 60 1014.9
20220701013017 77 0.0 0.0 0.00 0.00 0.00 60 1014.9
20220701012016 77 0.0 0.0 0.00 0.00 0.00 60 1015.0
20220701011017 78 0.0 0.0 0.00 0.00 0.00 59 1014.9
20220701010016 78 0.0 0.0 0.00 0.00 0.00 58 1014.9
20220701005017 78 0.0 0.0 0.00 0.00 0.00 58 1014.8
20220701004017 78 0.0 0.0 0.00 0.00 0.00 59 1014.8
20220701003016 78 0.0 0.0 0.00 0.00 0.00 59 1014.8
20220701002016 78 0.0 0.0 0.00 0.00 0.00 59 1014.9
20220701001016 78 0.0 0.0 0.00 0.00 0.00 59 1015.0
20220701000016 78 0.0 1.0 0.00 0.00 0.00 58 1015.0
20220630235016 79 0.0 0.0 0.00 0.00 0.00 57 1015.1
20220630234017 79 0.0 0.0 0.00 0.00 0.00 57 1015.0
20220630233016 79 0.0 0.0 0.00 0.00 0.00 57 1015.1
20220630232017 79 0.0 0.0 0.00 0.00 0.00 57 1015.0
20220630231016 79 0.0 1.0 0.00 0.00 0.00 57 1015.0
20220630230016 79 0.0 0.0 0.00 0.00 0.00 57 1015.1
20220630225017 79 0.0 0.0 0.00 0.00 0.00 57 1015.1
20220630224016 80 0.0 0.0 0.00 0.00 0.00 57 1015.1
20220630223016 80 0.0 0.0 0.00 0.00 0.00 57 1015.0
20220630222016 80 0.0 0.0 0.00 0.00 0.00 57 1014.9
20220630221017 80 0.0 0.0 0.00 0.00 0.00 57 1014.9
20220630220016 80 0.0 0.0 0.00 0.00 0.00 57 1014.8
20220630215016 80 0.0 0.0 0.00 0.00 0.00 57 1014.7
20220630214017 80 0.0 0.0 0.00 0.00 0.00 57 1014.7
20220630213016 81 0.0 0.0 0.00 0.00 0.00 57 1014.7
20220630212016 81 0.0 1.0 0.00 0.00 0.00 57 1014.6
20220630211016 81 0.0 0.0 0.00 0.00 0.00 57 1014.6
20220630210017 81 0.0 0.0 0.00 0.00 0.00 57 1014.5
20220630205017 81 0.0 0.0 0.00 0.00 0.00 57 1014.5
20220630204017 82 0.0 0.0 0.00 0.00 0.00 57 1014.5
20220630203017 82 0.0 0.0 0.00 0.00 0.00 57 1014.4
20220630202018 82 0.0 0.0 0.00 0.00 0.00 56 1014.4
20220630201017 83 0.0 0.0 0.00 0.00 0.00 56 1014.5
20220630200017 83 0.0 0.0 0.00 0.00 0.00 56 1014.5
20220630195018 83 0.0 0.0 0.00 0.00 0.00 55 1014.6
20220630194017 84 0.0 0.0 0.00 0.00 0.00 55 1014.6
20220630193017 84 0.0 0.0 0.00 0.00 0.00 55 1014.4
20220630192017 84 0.0 0.0 0.00 0.00 0.00 54 1014.3
20220630191018 84 0.0 0.0 0.00 0.00 0.00 55 1014.2
20220630190017 85 0.0 0.0 0.00 0.00 0.00 55 1014.0
20220630185017 85 0.0 0.0 0.00 0.00 0.00 55 1013.8
20220630184017 85 0.0 0.0 0.00 0.00 0.00 55 1013.8
20220630183018 86 0.0 0.0 0.00 0.00 0.00 56 1013.7
20220630182017 85 0.0 0.0 0.00 0.00 0.00 55 1013.7
20220630181017 85 135 1.0 8.0 0.00 0.00 0.00 53 1013.7
20220630180017 85 0.0 7.0 0.00 0.00 0.00 53 1013.6
20220630175017 85 0.0 1.0 0.00 0.00 0.00 55 1013.5